User: anonymous   Login
Location: Unspecified
(0.0000°N, 0.0000°E)
Time: 23:15:03
(UTC+00:00)
Language:

SEEDS - Orbit

View from above orbital plane
View from above orbital plane
View from above satellite
View from above satellite

Ground track
Ground track

The orbit data is extracted from the following two-line orbital elements,

1 32791U 08021J   18109.73241255  .00000422  00000-0  48523-4 0  9995
2 32791  97.5402 129.9185 0012640 207.0750 152.9811 14.90517029540802
Epoch (UTC): 19 April 2018 17:34:40
Eccentricity: 0.0012640
inclination: 97.5402°
perigee height: 587 km
apogee height: 605 km
right ascension of ascending node: 129.9185°
argument of perigee: 207.0750°
revolutions per day: 14.90517029
mean anomaly at epoch: 152.9811°
orbit number at epoch: 54080

The dashed part of the orbit path shows where the satellite is in the earth's shadow,  

DLR